Regional Weather Roundup
Issued by NWS

Home | Current Version | Previous Version | Graphics & Text | Print | Product List | Glossary On
Versions: 1 2 3 4 5 6 7 8 9 10 11 12 13 14 15 16 17 18 19 20 21 22 23 24 25 26 27 28 29 30 31 32 33 34 35 36 37 38 39 40 41 42 43 44 45 46 47 48 49 50
000
ASUS44 KMEG 311600
RWRTN
TENNESSEE HOURLY STATE WEATHER ROUNDUP
NATIONAL WEATHER SERVICE MEMPHIS TN
1100 AM CDT FRI JUL 31 2015

TNZ002-004-019-021-049-052-054-088>092-311700-
WEST TENNESSEE

CITY           SKY/WX    TMP DP  RH WIND       PRES   REMARKS
MEMPHIS INTL   MOSUNNY   88  62  41 NE16G22   30.10F
NWS MEMPHIS      N/A     86 N/A N/A MISG        N/A
JACKSON        SUNNY     89  64  43 NE14      30.11S HX  90
DYERSBURG        N/A    N/A N/A N/A MISG        N/A
PARIS          SUNNY     82  66  57 NE6       30.13S
LEXINGTON      SUNNY     82  66  57 N9        30.10S
$$

TNZ008-025-027-028-033-062-065-066-311700-
NORTH MIDDLE TENNESSEE

CITY           SKY/WX    TMP DP  RH WIND       PRES   REMARKS
NASHVILLE      MOSUNNY   84  56  38 E7        30.10S
CLARKSVILLE    SUNNY     84  69  60 NE5       30.10F
CROSSVILLE     SUNNY     79  55  43 NE10G20   30.14S
$$

TNZ061-075-076-078-094-096-097-311700-
SOUTH MIDDLE TENNESSEE

CITY           SKY/WX    TMP DP  RH WIND       PRES   REMARKS
FAYETTEVILLE   SUNNY     81  57  44 NE5G12    30.09S
TULLAHOMA      SUNNY     81  57  44 N10       30.11S
WINCHESTER     SUNNY     82  57  42 NE14      30.09S
MCMINNVILLE    SUNNY     82  64  54 NE12      30.11S
COLUMBIA       SUNNY     84  66  54 NE10      30.08F
SHELBYVILLE    SUNNY     84  63  48 NE12      30.11R
$$

TNZ017-018-042-046-047-311700-
NORTHEAST TENNESSEE

CITY           SKY/WX    TMP DP  RH WIND       PRES   REMARKS
TRI CITIES     MOSUNNY   80  55  42 N7        30.10S
ELIZABETHTON   SUNNY     79  55  44 CALM      30.10S
$$

TNZ012-013-036-069-073-074-311700-
CENTRAL EAST TENNESSEE

CITY           SKY/WX    TMP DP  RH WIND       PRES   REMARKS
KNOXVILLE      MOSUNNY   82  59  45 NE9       30.07S
OAK RIDGE      SUNNY     83  57  41 VRB5      30.09S
GATLINBURG     SUNNY     81  55  41 NE10      30.07S
$$

TNZ083-085-099-311700-
SOUTHEAST TENNESSEE

CITY           SKY/WX    TMP DP  RH WIND       PRES   REMARKS
CHATTANOOGA    MOSUNNY   83  58  42 N17G25    30.06S
$$

SKY/WX REPORTED AS FAIR MEANS FEW OR NO CLOUDS BELOW
12 THOUSAND FEET.




USA.gov is the U.S. government's official web portal to all federal, state and local government web resources and services.